This is the latest recevied weather packets stored in our database for station/object VK5TRM-13. If no packets are shown the sender has not sent any weather packets the latest 10 day(s).
| Time | Temp. | Humidity | Pressure | Rain* | Wind** | Luminosity | Snow |
|---|---|---|---|---|---|---|---|
| 1787688303 | 8.33° C | 93% | 1027.2 hPa | 0 mm | - | - | - |
| 1787687403 | 8.33° C | 94% | 1027.2 hPa | 0 mm | - | - | - |
| 1787686502 | 8.33° C | 94% | 1027.2 hPa | 0 mm | - | - | - |
| 1787685602 | 8.33° C | 94% | 1026.9 hPa | 0 mm | - | - | - |
| 1787684703 | 8.33° C | 94% | 1026.9 hPa | 0 mm | - | - | - |
| 1787683803 | 7.78° C | 93% | 1026.6 hPa | 0 mm | - | - | - |
| 1787682903 | 7.78° C | 93% | 1026.6 hPa | 0 mm | - | - | - |
| 1787682003 | 8.33° C | 94% | 1026.3 hPa | 0 mm | - | - | - |
| 1787681103 | 8.33° C | 94% | 1026.3 hPa | 0 mm | - | - | - |
| 1787680202 | 7.78° C | 95% | 1026.3 hPa | 0 mm | - | - | - |
| 1787679302 | 7.78° C | 95% | 1026.3 hPa | 0 mm | - | - | - |
| 1787678403 | 7.22° C | 94% | 1026.3 hPa | 0.25 mm | - | - | - |
| 1787677503 | 7.22° C | 94% | 1026.3 hPa | 0.25 mm | - | - | - |
| 1787676602 | 7.22° C | 94% | 1026.3 hPa | 0.25 mm | - | - | - |
| 1787675702 | 7.22° C | 94% | 1026.3 hPa | 0.25 mm | - | - | - |
| 1787674802 | 7.78° C | 94% | 1026.3 hPa | 0 mm | - | - | - |
| 1787673902 | 7.78° C | 94% | 1026.3 hPa | 0 mm | - | - | - |
| 1787673002 | 7.78° C | 93% | 1026.1 hPa | 0 mm | - | - | - |
| 1787672102 | 7.78° C | 93% | 1026.1 hPa | 0 mm | - | - | - |
| 1787671203 | 8.89° C | 93% | 1025.9 hPa | 0 mm | - | - | - |
| 1787670303 | 8.89° C | 93% | 1025.9 hPa | 0 mm | - | - | - |
| 1787669403 | 9.44° C | 93% | 1025.4 hPa | 0 mm | - | - | - |
| 1787668503 | 9.44° C | 93% | 1025.4 hPa | 0 mm | - | - | - |
| 1787667603 | 9.44° C | 93% | 1025.2 hPa | 0 mm | - | - | - |
| 1787666703 | 9.44° C | 93% | 1025.2 hPa | 0 mm | - | - | - |
* Rain latest hour (hover to see other rain measurements)
** Current wind speed in m/s (hover to see current wind gust speed)